Voltar ao catálogo

STARLINK-30787

AtivoComunicaçõesVLEO
NORAD 58128·PAYLOAD·🇺🇸 United States

Lançado Oct 22, 2023 de Cape Canaveral Space Force Station

Loading…

Próximas Passagens (próximas 24 horas)

TLE

AtualizadoSource: CelesTrak SupGP

Época: Sep 15, 2026, 02:35 UTC

1 58128C 23162L   26258.10812500  .00017490  00000+0  63440-3 0  2586
2 58128  43.0008 139.5643 0001588 268.9827  92.5611 15.27522508    18

Acompanhe STARLINK-30787 em tempo real com AllMySat

Download on the App Store